Location: Hopewell Observatory
(38.8698°N, 77.6988°W)
Time: 08:25:38
(UTC-04:00)

ARGOS - Pass Details

Date: 26 May 2018
Orbit: 821 x 834 km, 98.6° (Epoch: 16 October)

Event Time Altitude Azimuth Distance (km) Brightness Sun altitude
Exits shadow 21:56:19 19° 162° (SSE) 1,888 4.5 -15.0°
Maximum altitude 22:00:18 83° 76° (ENE) 840 3.1 -15.5°
Drops below altitude 10° 22:05:44 10° 349° (NNW) 2,447 6.5 -16.3°
Sets 22:08:06 0° 348° (NNW) 3,386 7.4 -16.6°
